Theta_e
321 321 323 325 328 326 328 324 323 325 326 329 327 331 335 336 336 342 340 340 334 339 339 334 339 338 337 335 332 331 331 331 331 329 325 321 323 327 328 329 328 327 325 325 327 326 328 328 324
321 321 324 326 328 330 328 325 322 325 328 325 327 331 332 337 338 339 341 339 336 338 338 335 337 338 336 336 336 336 333 332 329 324 321 320 324 329 329 329 328 327 323 328 328 326 327 326 319
321 321 325 327 327 327 326 324 325 326 325 325 329 331 333 338 339 340 340 337 336 337 337 338 336 337 335 335 337 336 335 331 322 324 319 319 324 326 328 328 327 324 325 328 327 327 326 314 320
322 323 323 325 326 325 325 323 326 326 325 324 325 329 337 338 339 337 337 335 339 338 337 337 334 334 335 334 335 335 334 327 325 325 318 316 323 328 327 325 323 324 326 327 328 326 326 320 326
322 323 324 325 325 324 325 323 324 325 326 326 325 327 330 329 329 333 338 335 339 339 338 336 328 332 335 334 333 332 329 325 328 328 323 319 317 317 324 324 323 325 325 326 327 326 323 321 326
320 322 322 323 323 323 324 323 323 324 324 325 325 325 328 332 321 329 336 339 338 339 338 337 328 328 332 333 331 329 327 327 329 329 325 322 320 318 321 324 324 325 326 325 326 326 324 323 326
322 321 321 322 322 321 321 321 320 322 323 324 322 325 330 324 318 330 332 338 338 338 336 337 335 328 325 326 327 329 330 329 329 329 328 325 323 320 321 323 325 325 326 325 325 325 324 326 325
320 321 319 320 320 320 321 318 319 321 321 319 320 323 324 329 325 326 324 333 337 337 337 337 337 336 331 329 332 334 333 331 330 330 329 327 325 323 322 324 325 324 325 325 323 324 324 324 324
319 319 319 320 320 319 318 317 316 315 316 316 318 319 322 327 329 321 319 319 323 333 336 337 338 336 336 337 337 336 334 333 332 331 331 329 327 325 323 323 324 324 324 326 324 323 323 324 324
318 319 318 318 318 317 317 314 314 313 314 314 314 315 315 314 314 314 314 317 316 316 321 330 333 336 334 334 334 337 336 334 333 333 332 331 329 327 327 326 323 323 323 324 324 323 322 325 324
317 318 316 314 314 313 313 313 312 312 314 314 314 313 313 311 310 310 310 310 310 310 310 316 320 326 330 333 333 333 334 334 334 333 333 332 331 329 327 327 326 323 323 322 324 324 323 325 324
313 315 314 314 311 311 312 311 311 311 311 312 309 309 309 308 307 307 307 307 307 306 307 307 309 310 313 319 328 330 331 333 333 332 333 333 333 331 330 327 327 326 323 321 323 324 323 321 323
311 312 310 310 309 308 308 308 309 308 309 309 308 307 306 307 307 307 306 306 306 306 305 304 304 305 307 309 310 310 316 323 329 331 333 333 333 332 331 329 328 327 326 323 322 322 322 323 321
310 309 309 308 308 307 307 308 306 309 307 307 308 307 307 307 306 306 306 306 305 305 304 303 303 303 303 304 305 305 306 311 317 319 321 327 330 331 330 331 329 327 326 325 322 321 323 324 321
308 308 310 309 308 307 305 309 308 308 307 306 306 306 306 306 306 305 304 304 304 304 303 303 303 303 303 303 303 303 303 303 305 309 314 315 314 322 330 329 326 327 326 325 324 322 322 324 324
308 308 313 308 306 307 305 313 312 306 305 306 306 306 305 305 305 305 304 304 304 303 303 303 303 303 303 303 303 303 303 303 303 305 308 312 314 318 318 321 326 328 327 327 325 325 322 322 323
310 314 314 310 305 305 306 310 311 305 305 305 306 306 306 306 305 305 304 304 303 304 304 303 303 303 303 304 303 303 303 304 304 305 309 312 313 314 318 318 318 316 321 325 325 325 322 322 323
316 312 311 309 307 306 306 308 309 309 309 308 308 307 306 306 305 304 304 303 303 303 303 303 303 303 303 303 303 303 303 304 304 304 305 309 311 313 314 317 314 316 314 314 323 324 324 322 321
306 307 309 310 306 303 307 308 309 309 309 309 308 307 305 304 304 304 304 303 303 303 304 304 302 300 302 303 304 305 306 308 309 309 308 307 306 309 311 314 310 308 314 315 315 318 323 323 322
306 308 312 309 304 303 306 307 309 309 309 306 306 305 305 304 304 304 304 304 303 302 301 300 300 300 304 306 306 306 306 306 306 307 307 306 306 307 310 311 312 308 309 310 310 316 317 321 322
307 307 308 306 305 306 305 311 316 309 305 305 304 305 305 305 305 304 304 303 302 301 300 300 300 300 299 299 302 304 304 304 303 303 303 304 304 305 305 305 306 308 307 307 309 308 314 318 319
307 303 303 304 307 317 304 319 314 314 309 306 305 305 304 304 304 304 302 302 302 300 300 300 300 299 299 298 298 298 300 301 302 302 302 302 302 303 303 303 303 301 302 309 307 307 306 312 320
306 303 303 304 306 303 309 310 315 309 310 310 308 305 305 305 304 303 303 302 301 300 300 300 300 299 298 299 300 300 300 300 300 300 300 300 300 301 301 301 301 301 301 302 308 311 308 307 311
303 303 303 303 306 314 307 311 317 315 312 308 307 307 306 305 304 303 301 300 300 301 301 299 297 297 299 300 302 302 301 301 300 300 301 301 301 301 301 301 300 300 301 302 303 308 311 307 306
303 305 324 324 322 324 304 306 313 313 309 308 306 305 305 305 303 302 302 302 301 300 298 297 297 299 300 301 300 300 299 299 298 298 298 299 299 300 300 301 301 301 301 302 303 302 308 310 312
305 304 315 321 320 317 301 312 312 307 305 306 307 305 304 303 303 302 302 301 300 299 297 297 299 300 300 299 299 299 298 298 297 297 297 297 298 298 299 299 300 301 301 302 302 303 304 306 310
304 304 301 308 296 305 313 311 310 309 308 306 304 304 304 304 303 302 301 301 299 297 297 299 301 300 300 299 297 296 295 295 295 295 295 295 295 295 296 297 298 298 300 301 302 303 305 305 306
302 301 308 309 313 318 320 315 316 314 307 304 304 304 304 303 302 302 301 300 297 296 298 301 301 300 298 296 295 294 294 294 293 293 293 293 294 295 295 294 295 297 298 300 302 303 304 306 306
302 303 302 303 306 313 317 318 313 317 309 307 305 303 303 303 303 302 300 298 296 297 301 301 299 297 296 294 293 293 293 293 292 292 292 292 293 293 293 294 294 295 298 298 300 301 302 306 307
301 304 304 308 312 305 303 308 310 306 304 302 303 303 303 302 301 300 298 297 297 301 301 298 297 295 293 292 292 291 292 292 292 292 292 292 292 292 294 293 294 294 295 297 298 299 301 303 306
Wind_Speed
8 6 6 4 5 5 10 4 3 5 4 2 2 5 8 9 9 4 3 3 4 5 13 15 16 14 14 12 12 13 12 11 10 11 12 12 10 9 9 9 9 9 7 7 9 11 11 13 14
6 3 4 5 6 9 6 6 8 4 3 4 2 3 5 5 7 7 4 5 2 5 11 14 17 16 16 13 11 10 9 9 10 11 13 14 13 12 13 14 14 13 9 12 13 12 13 13 17
4 2 5 4 6 10 6 3 5 3 2 3 3 3 2 5 5 3 4 1 1 5 10 12 16 16 16 14 12 11 11 10 10 9 9 12 15 16 17 18 18 15 13 14 14 14 13 15 21
2 4 6 7 12 8 6 2 2 6 4 0 2 4 5 3 2 2 2 2 3 6 9 15 13 17 16 15 15 14 13 12 10 8 8 9 13 11 18 18 16 13 14 15 16 15 16 22 21
3 5 8 7 12 9 4 3 4 6 2 5 3 7 1 2 1 0 0 2 3 5 7 12 13 16 16 16 16 16 15 14 11 10 9 9 12 14 15 13 12 13 15 18 17 17 14 22 21
7 6 7 10 11 5 4 5 7 10 12 7 7 11 3 5 1 3 1 2 3 5 8 9 12 16 17 16 17 17 16 14 14 12 11 10 11 12 15 13 14 15 16 17 18 19 19 19 21
10 6 11 10 8 7 5 1 10 11 13 12 1 6 2 5 3 5 1 2 2 5 8 8 10 14 16 18 19 18 17 16 16 15 14 13 12 11 13 15 16 20 19 17 19 19 22 22 23
7 4 5 6 5 7 3 4 3 6 9 1 2 5 9 10 6 3 2 2 3 5 7 9 10 11 13 16 17 18 19 19 19 19 17 16 15 13 13 16 19 19 21 21 21 20 23 21 26
4 6 7 7 6 1 2 4 2 3 8 8 8 10 3 7 5 3 3 4 3 5 6 9 11 13 13 16 18 19 21 22 21 21 21 20 19 18 17 20 21 21 23 23 22 23 26 24 28
8 6 4 6 3 3 2 5 8 6 9 13 15 14 11 10 8 7 7 7 7 6 10 10 13 16 17 19 20 20 21 23 24 25 25 25 24 21 20 20 22 24 25 25 23 23 26 28 30
4 6 7 2 4 4 7 10 11 10 10 17 18 12 16 12 11 10 11 10 10 11 11 13 16 17 18 19 23 23 22 23 24 25 27 27 25 26 23 24 26 25 26 28 28 27 24 32 35
5 7 6 3 2 3 6 8 11 18 23 15 9 11 12 13 14 13 13 12 12 13 13 14 16 19 22 23 23 23 26 27 28 27 27 29 32 31 30 29 30 29 28 32 30 32 30 34 39
9 7 5 6 7 10 12 17 17 25 24 20 18 16 16 14 16 14 13 13 14 16 17 18 20 22 25 26 27 26 23 20 24 29 32 30 32 37 35 35 33 33 31 31 37 34 35 35 39
3 8 11 7 7 9 9 13 4 7 6 10 16 19 17 15 13 11 12 14 16 18 20 18 17 20 23 25 27 28 28 23 20 23 29 29 31 36 36 40 39 39 36 36 35 37 37 36 40
5 7 7 7 4 3 9 13 16 18 11 10 12 13 14 13 13 14 15 16 16 12 10 10 11 12 15 18 22 24 27 28 28 26 24 26 32 36 30 44 42 40 41 41 39 36 40 36 38
4 4 4 6 2 2 4 11 7 6 8 11 11 11 13 15 17 18 18 14 10 9 9 9 10 12 15 19 20 22 23 25 27 26 24 25 27 26 31 38 35 39 47 47 47 45 43 39 43
5 6 6 2 4 5 3 14 3 1 9 16 18 20 22 23 23 19 17 12 9 8 7 7 10 12 14 17 20 23 24 24 25 25 22 21 23 26 28 33 34 32 35 44 52 55 49 47 47
4 6 3 7 5 6 14 26 25 22 20 25 23 22 22 21 18 12 12 10 9 7 7 9 12 15 18 20 23 26 28 29 29 28 27 23 22 22 24 28 33 32 33 36 41 43 49 51 53
5 6 11 11 6 7 10 20 26 22 24 25 20 14 12 11 12 12 11 9 6 5 4 6 12 20 24 24 22 22 24 24 23 23 26 28 29 25 25 27 29 31 33 35 37 39 37 56 51
4 8 6 8 3 4 12 24 27 21 10 6 5 5 10 12 12 11 9 7 5 4 3 9 22 24 18 17 18 21 22 26 24 25 28 32 35 33 28 27 29 29 30 36 36 34 39 36 46
7 7 6 5 10 8 13 11 8 3 4 6 6 6 9 10 10 10 9 8 7 7 10 17 27 34 28 26 30 35 38 40 41 43 43 43 41 41 40 38 35 33 33 33 34 36 36 36 42
7 3 1 6 8 3 6 6 10 4 6 7 10 11 11 10 9 8 8 9 9 14 18 23 32 39 36 32 35 37 40 41 42 40 39 37 37 46 48 46 45 43 39 35 36 36 37 37 42
2 1 3 5 3 4 2 3 7 2 4 7 11 14 14 12 11 9 9 10 13 20 27 34 41 44 36 32 33 35 38 41 42 40 41 42 45 45 46 53 52 47 45 45 40 37 40 40 39
1 4 4 1 2 3 4 3 7 4 3 5 5 13 15 13 12 11 11 13 17 20 35 39 33 34 33 33 35 36 38 40 40 38 38 37 37 38 42 46 52 54 48 49 47 42 40 44 44
3 5 3 3 3 2 5 3 11 9 3 2 5 6 7 10 10 9 12 11 18 32 32 32 31 34 34 34 34 34 37 38 40 40 38 36 36 36 37 38 41 43 47 47 47 50 45 43 41
5 2 3 6 4 4 2 7 4 1 3 6 8 7 7 9 11 13 10 15 28 32 32 32 33 34 32 30 31 33 36 37 37 35 34 35 34 33 32 34 36 38 40 42 45 47 49 46 43
4 4 3 2 2 3 5 6 13 9 11 11 11 9 11 7 7 10 13 22 29 31 32 32 32 31 30 36 36 34 34 33 36 38 39 38 39 41 44 44 45 41 41 42 41 44 46 46 45
3 1 2 2 4 6 4 4 10 5 1 4 4 1 2 2 13 13 21 29 29 29 31 28 27 31 36 34 31 30 32 32 34 36 37 37 40 37 36 38 37 40 41 41 40 41 41 43 43
3 3 4 3 3 4 8 5 1 4 7 3 4 5 6 16 19 20 24 23 24 28 25 28 32 33 32 33 32 30 31 32 33 34 34 35 35 35 38 37 37 39 32 42 36 36 38 37 40
1 2 4 4 3 4 3 11 11 7 5 3 9 9 15 16 21 22 20 21 23 23 25 36 35 31 33 34 32 30 31 31 32 32 33 32 36 35 35 36 37 35 38 39 42 40 36 38 38
Wind_Direction
270 297 316 290 252 229 257 233 278 208 204 88 300 268 358 28 357 24 111 112 4 171 182 189 191 202 212 218 225 224 218 224 235 242 242 236 227 216 229 238 235 233 229 187 199 187 184 179 162
257 289 284 274 250 242 251 173 214 207 38 286 241 213 228 113 73 97 131 352 22 159 175 192 196 206 214 224 228 227 223 235 250 255 246 231 215 205 218 220 221 231 224 187 203 197 185 190 168
229 212 258 238 246 250 284 160 194 179 256 217 214 256 31 80 69 98 335 352 98 161 174 195 202 208 220 227 230 240 248 255 262 266 242 231 219 218 219 227 230 228 183 193 208 202 193 175 159
205 214 242 249 245 249 280 204 169 224 181 234 299 230 111 97 109 358 324 171 142 174 178 214 208 204 220 227 234 244 254 266 263 260 249 238 214 220 226 236 215 206 194 201 209 206 204 169 163
201 244 244 243 256 265 237 255 231 242 240 229 277 239 173 108 185 250 8 191 155 176 192 221 206 199 213 225 233 244 256 262 256 256 256 255 249 236 219 225 216 202 211 202 211 203 199 177 176
201 264 235 243 250 213 248 236 252 246 250 248 260 257 247 220 213 244 267 200 201 192 205 209 208 207 216 225 236 245 254 256 253 254 255 256 251 270 225 211 209 205 219 212 210 214 190 192 185
252 230 256 275 272 259 245 219 244 253 255 249 248 263 118 186 235 229 193 201 215 206 220 213 228 218 221 225 233 245 250 254 254 256 260 262 261 264 236 216 221 202 214 224 215 224 194 198 192
249 267 256 227 252 249 109 245 273 253 262 304 232 248 253 173 242 244 207 192 217 230 228 216 213 228 233 233 235 240 246 251 251 255 259 263 263 259 242 228 226 215 214 218 221 225 199 205 203
223 247 254 251 242 88 128 263 199 267 257 247 239 263 287 232 243 247 247 250 217 231 236 227 237 237 236 241 241 250 248 249 252 254 257 255 253 250 239 230 233 227 220 223 223 220 206 204 204
229 254 297 20 323 274 248 271 304 277 253 252 251 250 249 254 251 252 248 241 250 255 244 234 244 235 240 246 243 248 258 255 251 249 250 248 244 239 240 240 241 230 224 225 227 229 216 205 209
189 253 22 277 300 296 289 278 265 267 268 260 260 264 241 255 257 259 253 249 248 254 261 259 253 248 247 247 252 249 252 255 255 253 251 248 245 243 230 235 241 236 226 223 227 226 226 217 209
252 248 268 306 294 283 274 297 266 255 252 277 256 261 241 253 261 260 259 256 258 264 264 264 261 260 258 256 258 264 257 256 257 256 256 248 240 246 244 240 238 243 232 223 222 225 226 221 214
244 277 267 265 268 273 275 265 267 269 263 261 256 247 246 252 263 253 253 259 267 270 270 270 267 261 260 262 262 262 260 265 267 262 257 253 253 246 253 240 233 236 243 231 221 228 226 224 218
347 283 275 273 269 271 274 274 288 259 227 243 234 241 247 246 244 237 252 269 275 275 274 276 272 264 266 267 269 268 266 259 262 269 267 259 255 254 251 244 249 239 231 235 229 225 223 227 223
295 294 270 235 262 269 302 271 227 252 239 237 231 237 241 237 231 239 272 270 270 261 264 279 283 280 277 276 276 279 280 277 271 261 261 268 266 255 254 254 252 242 227 232 228 223 227 228 226
262 258 274 117 283 140 300 279 180 191 218 247 246 244 243 236 237 261 267 257 245 253 267 281 289 292 285 280 279 279 279 278 277 277 271 254 255 260 264 253 250 243 246 236 234 237 226 222 233
197 291 270 277 47 322 280 291 271 172 249 259 262 262 260 255 257 260 252 231 236 251 261 276 285 292 290 286 281 277 278 276 275 272 264 264 262 255 246 260 260 253 252 238 238 238 229 227 227
323 292 274 285 36 313 284 273 281 280 276 275 273 268 263 256 249 230 205 214 228 241 267 288 300 303 300 293 285 275 269 269 271 271 270 266 261 259 259 251 261 257 250 249 244 233 231 234 227
298 282 282 292 32 308 275 284 287 288 282 279 273 260 241 218 190 187 188 202 211 249 272 300 314 312 298 288 284 277 272 268 266 260 261 263 266 257 250 249 256 261 259 252 247 244 243 225 221
260 288 289 289 15 302 300 294 284 288 264 261 269 199 177 174 181 181 181 186 200 196 274 313 330 323 294 283 277 268 264 258 253 252 251 255 258 256 251 249 251 256 255 259 256 247 242 245 212
252 255 295 282 319 265 308 272 279 179 210 233 219 199 183 180 182 186 194 198 200 247 284 300 324 330 312 294 284 279 275 271 268 262 259 258 257 256 256 257 254 254 257 257 257 257 247 242 240
277 46 281 297 337 302 13 287 293 265 244 205 206 207 205 204 201 200 209 216 235 265 286 299 313 317 310 295 285 279 273 270 268 266 264 264 264 262 259 258 256 255 254 252 253 255 256 249 235
11 348 310 310 296 323 177 229 276 166 228 217 205 209 212 216 218 226 238 250 263 284 300 308 305 305 298 289 282 277 275 275 274 269 265 261 257 252 254 258 258 257 255 251 246 243 249 251 244
61 275 226 245 168 242 143 226 286 246 146 156 170 204 214 219 225 233 251 279 293 304 311 308 299 298 295 292 287 280 276 275 275 273 270 267 263 258 252 250 253 255 247 246 246 243 240 248 249
244 280 276 249 217 274 146 212 250 282 169 194 168 177 217 216 227 256 278 284 306 315 312 306 303 299 297 292 286 281 279 278 277 275 273 271 268 262 258 255 251 248 245 241 240 240 238 237 239
187 297 298 289 287 348 163 240 243 338 345 244 235 234 238 236 247 272 278 299 312 314 311 309 305 298 295 293 289 282 278 276 275 273 269 266 266 266 264 256 253 247 246 242 236 236 236 235 236
133 204 55 293 142 271 233 263 268 275 230 243 231 250 249 246 252 265 286 309 312 309 311 310 304 302 297 291 292 288 285 282 277 274 273 274 272 271 264 256 253 255 248 242 237 234 232 231 232
283 30 237 172 282 273 232 262 261 263 86 121 151 176 224 295 317 294 299 308 309 312 313 310 303 298 298 295 294 291 290 287 283 284 279 274 266 264 267 266 260 251 245 240 234 230 231 229 229
159 227 221 285 241 275 298 268 15 24 21 25 64 356 338 320 313 302 304 308 311 316 314 306 303 304 302 305 308 303 296 293 294 291 287 283 278 271 262 258 257 249 246 234 231 231 230 230 229
56 297 241 261 214 254 301 265 307 60 72 6 302 294 304 312 312 308 308 310 316 316 312 314 319 308 315 319 314 312 309 307 304 298 295 289 284 277 268 260 255 248 245 242 238 235 230 233 232